Location: Agadir Irigdalene
(31.2522°N, 8.7797°W)
Time: 06:14:11
(UTC+00:00)

Cosmos 1633 Rocket - Pass Details

Date: 01 December 2020
Orbit: 607 x 624 km, 82.5° (Epoch: 25 January)

Event Time Altitude Azimuth Distance (km) Brightness Sun altitude
Rises 18:05:26 0° 354° (N) 2,881 6.3 -7.4°
Reaches altitude 10° 18:07:40 10° 355° (N) 1,970 5.5 -7.8°
Maximum altitude 18:12:02 87° 82° (E) 614 3.0 -8.7°
Drops below altitude 10° 18:16:21 10° 174° (S) 1,950 5.8 -9.6°
Sets 18:18:33 0° 174° (S) 2,849 6.7 -10.0°
